Regional Weather Roundup
Issued by NWS

Home | Current Version | Previous Version | Graphics & Text | Print | Product List | Glossary On
Versions: 1 2 3 4 5 6 7 8 9 10 11 12 13 14 15 16 17 18 19 20 21 22 23 24 25 26 27 28 29 30 31 32 33 34 35 36 37 38 39 40 41 42 43 44 45 46 47 48 49 50
000
ASUS43 KFSD 141202
RWRSD

WEATHER ROUNDUP FOR SOUTH DAKOTA
NATIONAL WEATHER SERVICE SIOUX FALLS SD
600 AM CST SUN FEB 14 2016

NOTE: "FAIR" INDICATES FEW OR NO CLOUDS BELOW 12,000 FEET WITH NO
SIGNIFICANT WEATHER AND/OR OBSTRUCTIONS TO VISIBILITY.


SDZ001>005-009-010-012>017-141300-
NORTHWEST AND NORTH CENTRAL SOUTH DAKOTA

CITY           SKY/WX    TMP DP  RH WIND       PRES   REMARKS
BUFFALO          N/A     32  26  78 NW17      29.72F WCI  21
FAITH            N/A     28  23  81 W14       29.77F WCI  17
MOBRIDGE       CLOUDY    22  21  96 CALM      29.76R
$$

SDZ012>016-024>037-041>051-057-063-072>074-141300-
SOUTHWEST AND SOUTH CENTRAL SOUTH DAKOTA

CITY           SKY/WX    TMP DP  RH WIND       PRES   REMARKS
RAPID CTY ARPT CLEAR     32  24  72 W8        29.85S WCI  25
PIERRE         CLOUDY    27  26  96 W6        29.80S WCI  20
CUSTER         CLOUDY    26  18  71 W12       29.83F WCI  16
ELLSWORTH AFB  CLOUDY    31  25  78 W8        29.83F WCI  23
PHILIP         CLEAR     30  27  88 W5        29.85R WCI  25
PINE RIDGE     CLOUDY    30  23  75 W5        29.89F WCI  25
WINNER         CLOUDY    39  32  76 W21       29.81R
$$

SDZ004>011-016>023-039-040-141300-
NORTHEAST SOUTH DAKOTA

CITY           SKY/WX    TMP DP  RH WIND       PRES   REMARKS
ABERDEEN       CLOUDY    16  11  80 S14       29.85F WCI   2
WATERTOWN      CLOUDY    12   6  77 S16       29.84S WCI  -5
BROOKINGS      LGT SNOW  12   8  84 S15       29.86F FOG     WCI  -4
SISSETON         N/A     13  10  88 S14       29.90F WCI  -2
$$

SDZ017-020-022-023-036>040-048>070-141300-
SOUTHEAST SOUTH DAKOTA

CITY           SKY/WX    TMP DP  RH WIND       PRES   REMARKS
SIOUX FALLS    CLOUDY    14   9  80 SE12      29.88F FOG     WCI   0
HURON          CLOUDY    15  11  83 S14G22    29.85F WCI   0
MITCHELL       CLOUDY    16  12  84 SE13      29.86F WCI   2
YANKTON        CLOUDY    18  12  79 SE10      29.86R WCI   6
$$

ABBREVIATIONS USED IN REMARKS
   TC - TEMPERATURE IN CELSIUS
  WCI - WIND CHILL INDEX
   HX - HEAT INDEX
  VSB - VISIBILITY




USA.gov is the U.S. government's official web portal to all federal, state and local government web resources and services.